Weather History for Casper, WY

Change the Weather History Date:

Wednesday, January 11, 2012

  Actual Average Record
Temperature  
Mean Temperature 11 °F 25 °F  
Max Temperature 24 °F 35 °F 57 °F (1953)
Min Temperature -2 °F 14 °F -28 °F (1974)
Degree Days  
Heating Degree Days 54 40  
Month to date heating degree days 399 445  
Since 1 July heating degree days 3299 3574  
Cooling Degree Days 0 0  
Month to date cooling degree days 0 0  
Year to date cooling degree days 0 0  
Moisture  
Dew Point 8 °F    
Average Humidity 70    
Maximum Humidity 84    
Minimum Humidity 55    
Precipitation  
Precipitation 0.04 in 0.02 in 0.15 in (2007)
Month to date precipitation 0.18 0.18  
Year to date precipitation 0.18 0.18  
Snow  
Snow 2.00 in 0.30 in - ()
Month to date snowfall 3.7 3.4  
Since 1 July snowfall 30.4 33.9  
Snow Depth 3.00 in    
Sea Level Pressure  
Sea Level Pressure 30.22 in    
Wind  
Wind Speed 13 mph (North)    
Max Wind Speed 27 mph    
Max Gust Speed 55 mph    
Visibility 6 miles    
Events Fog , Snow    
T = Trace of Precipitation, MM = Missing Value Source: NWS Daily Summary

Daily Weather History Graph

Daily Weather History Graph

Search for Another Location

Airport:

Trip Planner

Search our weather history database for the weather conditions in past years. The results will help you decide how hot, cold, wet, or windy it might be!

Date:

Astronomy

Jan. 11, 2012 Rise Set
Actual Time 7:35 AM MST 4:51 PM MST
Civil Twilight 7:04 AM MST 5:23 PM MST
Nautical Twilight 6:28 AM MST 5:58 PM MST
Astronomical Twilight 5:54 AM MST 6:32 PM MST
Moon 7:58 PM MST (1/11) 8:44 AM MST (1/11)
Length of Visible Light 10h 19m
Length of Day
9h 16m
Waning Gibbous, 93% of the Moon is Illuminated
Jan 11
Waning Gibbous
Jan 16
Last Quarter
Jan 23
New
Jan 30
First Quarter
Feb 7
Full

Hourly Weather History & Observations

Time (MST) Temp. Windchill Dew Point Humidity Pressure Visibility Wind Dir Wind Speed Gust Speed Precip Events Conditions
12:03 AM 24.8 °F 12.9 °F 19.4 °F 80% 30.01 in 1.5 mi NNE 13.8 mph - 0.00 in Snow Light Snow
12:18 AM 24.8 °F 14.0 °F 19.4 °F 80% 30.01 in 1.0 mi NE 11.5 mph - 0.00 in Snow Light Snow
12:26 AM 23.0 °F 10.6 °F 19.4 °F 86% 30.00 in 0.5 mi NE 13.8 mph 20.7 mph 0.00 in Fog , Snow Snow
12:40 AM 23.0 °F 10.6 °F 19.4 °F 86% 30.02 in 1.0 mi NE 13.8 mph - 0.01 in Snow Light Snow
12:49 AM 21.2 °F 6.0 °F 17.6 °F 86% 30.02 in 1.0 mi North 19.6 mph 25.3 mph 0.01 in Snow Light Snow
12:53 AM 21.9 °F 6.5 °F 18.0 °F 85% 30.08 in 1.2 mi NNE 20.7 mph 27.6 mph 0.01 in Snow Light Snow
1:00 AM 21.2 °F 6.4 °F 17.6 °F 86% 30.04 in 1.8 mi NNE 18.4 mph 27.6 mph 0.00 in Snow Light Snow
1:07 AM 21.2 °F 7.3 °F 17.6 °F 86% 30.04 in 2.5 mi NNE 16.1 mph - 0.00 in Snow Light Snow
1:17 AM 21.2 °F 8.9 °F 17.6 °F 86% 30.04 in 4.0 mi NE 12.7 mph - 0.00 in Snow Light Snow
1:37 AM 21.2 °F 7.3 °F 17.6 °F 86% 30.05 in 1.8 mi NE 16.1 mph 25.3 mph 0.00 in Snow Light Snow
1:53 AM 21.0 °F 7.6 °F 16.0 °F 81% 30.12 in 2.5 mi NNE 15.0 mph - 0.00 in Snow Light Snow
2:17 AM 19.4 °F 5.5 °F 15.8 °F 86% 30.07 in 1.5 mi NNE 15.0 mph - 0.01 in Snow Light Snow
2:26 AM 21.2 °F 7.8 °F 15.8 °F 80% 30.07 in 3.0 mi NNE 15.0 mph - 0.01 in Snow Light Snow
2:53 AM 19.9 °F 3.2 °F 15.1 °F 81% 30.14 in 1.8 mi NNE 23.0 mph 27.6 mph 0.01 in Snow Light Snow
3:53 AM 17.6 °F 1.7 °F 12.2 °F 79% 30.11 in 2.5 mi North 18.4 mph - N/A Snow Light Snow
4:30 AM 17.6 °F 1.3 °F 12.2 °F 79% 30.12 in 1.8 mi North 19.6 mph - 0.00 in Snow Light Snow
4:53 AM 17.1 °F 2.5 °F 12.0 °F 81% 30.21 in 1.8 mi North 15.0 mph - 0.00 in Snow Light Snow
5:03 AM 15.8 °F -1.1 °F 10.4 °F 79% 30.13 in 2.5 mi North 19.6 mph 24.2 mph 0.00 in Snow Light Snow
5:27 AM 15.8 °F -0.2 °F 10.4 °F 79% 30.14 in 3.0 mi North 17.3 mph 25.3 mph 0.00 in Snow Light Snow
5:53 AM 15.1 °F -1.6 °F 10.0 °F 80% 30.25 in 4.0 mi North 18.4 mph - 0.00 in   Haze
6:53 AM 12.9 °F -7.3 °F 7.0 °F 77% 30.28 in 4.0 mi NNE 26.5 mph 31.1 mph 0.00 in Snow Light Snow
7:53 AM 10.9 °F -6.5 °F 5.0 °F 77% 30.34 in 8.0 mi NNE 17.3 mph - 0.00 in   Overcast
8:53 AM 10.9 °F - 3.9 °F 73% 30.36 in 10.0 mi Calm Calm - N/A   Overcast
9:53 AM 12.0 °F - 3.9 °F 70% 30.37 in 10.0 mi Calm Calm - 0.02 in   Overcast
10:53 AM 12.9 °F - 5.0 °F 71% 30.38 in 10.0 mi Calm Calm - N/A   Mostly Cloudy
11:53 AM 12.0 °F 1.5 °F 5.0 °F 73% 30.38 in 10.0 mi WSW 6.9 mph - N/A   Scattered Clouds
12:53 PM 12.9 °F -0.9 °F 3.0 °F 65% 30.37 in 10.0 mi WNW 11.5 mph - N/A   Mostly Cloudy
1:53 PM 14.0 °F -2.0 °F -0.0 °F 54% 30.36 in 10.0 mi WNW 16.1 mph - N/A   Partly Cloudy
2:53 PM 12.9 °F 0.7 °F -0.0 °F 56% 30.37 in 10.0 mi West 9.2 mph - N/A   Clear
3:53 PM 10.4 °F -2.4 °F -0.4 °F 62% 30.19 in 10.0 mi WSW 9.2 mph - N/A   Clear
4:53 PM 1.0 °F -10.3 °F -6.0 °F 72% 30.44 in 10.0 mi WSW 5.8 mph - N/A   Clear
5:53 PM 1.0 °F -14.9 °F -8.0 °F 66% 30.45 in 10.0 mi SW 10.4 mph - N/A   Clear
6:53 PM -0.0 °F -17.1 °F -9.0 °F 66% 30.46 in 10.0 mi SW 11.5 mph 23.0 mph N/A   Clear
7:53 PM 3.0 °F -14.8 °F -8.0 °F 60% 30.45 in 10.0 mi WSW 13.8 mph - N/A   Clear
8:53 PM 3.0 °F -14.8 °F -8.0 °F 60% 30.45 in 10.0 mi WSW 13.8 mph - N/A   Clear
9:53 PM 5.0 °F -12.3 °F -5.1 °F 63% 30.42 in 10.0 mi SW 13.8 mph - N/A   Clear
10:53 PM 7.0 °F -9.8 °F -5.1 °F 58% 30.41 in 10.0 mi SW 13.8 mph - N/A   Clear
11:53 PM 8.1 °F -7.0 °F -5.1 °F 55% 30.40 in 10.0 mi WSW 11.5 mph - N/A   Clear